Regional Weather Roundup
Issued by NWS

Home | Current Version | Previous Version | Text Only | Print | Product List | Glossary On
Versions: 1 2 3 4 5 6 7 8 9 10 11 12 13 14 15 16 17 18 19 20 21 22 23 24 25 26 27 28 29 30 31 32 33 34 35 36 37 38 39 40 41 42 43 44 45 46 47 48 49 50
000
ASUS43 KIND 271709
RWRIN

WEATHER ROUNDUP FOR INDIANA
NATIONAL WEATHER SERVICE INDIANAPOLIS IN
100 PM EDT TUE SEP 27 2016

NOTE: "FAIR" INDICATES FEW OR NO CLOUDS BELOW 12,000 FEET WITH NO
SIGNIFICANT WEATHER AND/OR OBSTRUCTIONS TO VISIBILITY.

* - STATION DOES NOT REPORT WEATHER SUCH AS PRECIPITATION OR FOG.

+ - STATION NOT QUALITY CONTROLLED BY THE NATIONAL WEATHER SERVICE.
    USE DATA WITH CAUTION...ESPECIALLY DEWPOINT AND RELATIVE
    HUMIDITY OBSERVATIONS.

INZ001>003-010>013-019-020-271800-
NORTHWEST INDIANA

CITY           SKY/WX    TMP DP  RH WIND       PRES   REMARKS
GARY /AIRPORT/ MOSUNNY   70  30  23 W32G44    29.82F
KNOX *+        FAIR      68  -2   6 W16G26    29.82F
LA PORTE +     FAIR      67  34  28 W24G35    29.82F
MICHIGAN CITY+ FAIR      64  36  34 MISG      29.80F
MONTICELLO +   FAIR      71  23  17 W20G28    29.85F
RENSSELAER +   FAIR      70  32  24 SW20G25   29.84F
VALPARAISO     FAIR      66  34  30 W21G33    29.82F

$$

LMZ046-743>745-271800-
SOUTHERN LAKE MICHIGAN

STATION/POSITION TIME  TEMP    WIND        PRES    WAVE
                       AIR SEA DIR/SP/G            HT
                 (UTC) (F)     (DEG/KT/KT) (MB)    (FT)
BURNS HARBOR     1600   63     250/ 19     1010.2F
MICHIGAN CITY    1600   62     230/ 26/ 29   N/A
5NW MICH CITY    1700   64 67  260/ 21/ 27   N/A     6

$$

INZ004-005-014>016-021>024-271800-
NORTH CENTRAL INDIANA

CITY           SKY/WX    TMP DP  RH WIND       PRES   REMARKS
ELKHART        SUNNY    N/A N/A N/A W14G29    29.78F
GOSHEN         FAIR      67  34  29 W25G33    29.81F
LOGANSPORT +   FAIR      70  36  28 W17G28    29.85F
PERU/GRISSOM   FAIR      70  35  27 W23G32    29.83F
ROCHESTER +    FAIR      70  36  28 W16G28    29.83F
SOUTH BEND     FAIR      65  35  33 W20G30    29.80F
WARSAW +       FAIR      66  28  24 W17G28    29.82F

$$

INZ006>009-017-018-025>027-271800-
NORTHEAST INDIANA

CITY           SKY/WX    TMP DP  RH WIND       PRES   REMARKS
ANGOLA *+        N/A     66  59  77 W20G28    29.80F
AUBURN +       FAIR      68  32  26 W16G25    29.83F
FORT WAYNE     FAIR      70  34  26 SW18G29   29.83F
HUNTINGTON +   FAIR     N/A N/A N/A W17G26    29.83F
KENDALLVILLE + FAIR      66  34  30 W21G33    29.81F

$$

INZ028-029-035-036-043>045-051>053-271800-
WEST CENTRAL INDIANA

CITY           SKY/WX    TMP DP  RH WIND       PRES   REMARKS
CRAWFORDSVL +  FAIR      70  44  38 W14G20    29.89F
GREENCASTLE +  FAIR      70  54  56 SW6       29.92F
LAFAYETTE      FAIR      70  40  33 W18G30    29.86F
TERRE HAUTE    FAIR      72  48  42 W10G21    29.93F

$$

INZ030>032-037>040-046>048-054>057-064-065-271800-
CENTRAL INDIANA

CITY           SKY/WX    TMP DP  RH WIND       PRES   REMARKS
COLUMBUS       SUNNY     70  50  49 SW15      29.94F
FISHERS *+     FAIR      70  52  52 SW12G18   29.89F
FRANKFORT +    FAIR      74  39  28 W14G24    29.89F
GREENWOOD *+   FAIR      72  50  46 SW9G17    29.92F
INDIANAPOLIS   FAIR      71  47  42 W17       29.90F
-EAGLE CREEK   FAIR      71  46  40 SW9G18    29.89F
MARION +       FAIR      71  36  27 W20G26    29.86F
MT COMFORT *+  FAIR      72  46  40 SW12G20   29.90F
SHELBYVILLE    FAIR      74  46  36 SW18      29.91F
ZIONSVILLE +   FAIR      71  44  38 W18G25    29.89F

$$

INZ033-034-041-042-049-050-058-059-271800-
EAST CENTRAL INDIANA

CITY           SKY/WX    TMP DP  RH WIND       PRES   REMARKS
MUNCIE         FAIR      72  43  35 W17G24    29.86F

$$

INZ060-061-067>069-081>083-085>088-271800-
SOUTHWEST INDIANA

CITY           SKY/WX    TMP DP  RH WIND       PRES   REMARKS
EVANSVILLE     FAIR      75  45  34 SW9       30.00F
HUNTINGBURG *+   N/A     73  46  38 W12       29.99F
WASHINGTON +   FAIR      73  50  43 MISG      29.96F

$$

INZ062-063-066-070>080-084-089>092-271800-
SOUTH CENTRAL AND SOUTHEAST INDIANA

CITY           SKY/WX    TMP DP  RH WIND       PRES   REMARKS
BEDFORD +      FAIR     N/A N/A N/A SW12G20   29.95F
BLOOMINGTON    FAIR      73  47  39 SW13      29.94F
MADISON *+     FAIR      72  39  30 SW10G16   29.99F
NORTH VERNON + FAIR      72  54  53 SW13G20   29.96
SEYMOUR +      FAIR      75  46  35 SW15G21   29.96F

$$




USA.gov is the U.S. government's official web portal to all federal, state and local government web resources and services.